Regional Weather Roundup
Issued by NWS

Home | Current Version | Previous Version | Graphics & Text | Print | Product List | Glossary On
Versions: 1 2 3 4 5 6 7 8 9 10 11 12 13 14 15 16 17 18 19 20 21 22 23 24 25 26 27
000
ASUS45 KPSR 200110
RWRAZ

ARIZONA HOURLY REGIONAL WEATHER ROUNDUP
NATIONAL WEATHER SERVICE PHOENIX AZ
600 PM MST THU JAN 19 2017

NOTE: FAIR INDICATES FEW OR NO CLOUDS BELOW 12,000 FEET WITH NO
SIGNIFICANT WEATHER AND/OR OBSTRUCTIONS TO VISIBILITY.

AZZ001>003-036-200200-
NORTHWEST ARIZONA

CITY           SKY/WX    TMP DP  RH WIND       PRES   REMARKS
BULLHEAD CITY  MOCLDY    54  50  87 SW7       29.81F
KINGMAN        PTCLDY    43  37  79 S13       29.81S
$$

AZZ004>008-015-016-018-200200-
NORTH CENTRAL ARIZONA

CITY           SKY/WX    TMP DP  RH WIND       PRES   REMARKS
GRAND CANYON   CLOUDY    30  29  96 SW14G23   29.81R WCI  19
WILLIAMS       SNOW      30  28  93 SW5G12    29.82R VSB 1/4 WCI  25
PRESCOTT       LGT RAIN  37  35  92 SW14G28   29.86R FOG     WCI  28
FLAGSTAFF      LGT SNOW  28  27  96 SW13      29.81S VSB 1   WCI  17
PAYSON         DRIZZLE   37  36  93 CALM      29.91S
PAGE           LGT RAIN  41  33  73 CALM      29.75R
$$

AZZ009>014-017-200200-
NORTHEAST ARIZONA

CITY           SKY/WX    TMP DP  RH WIND       PRES   REMARKS
WINSLOW        LGT RAIN  41  36  82 S10       29.83S
SAINT JOHNS    LGT RAIN  39  34  82 W16       29.84R WCI  30
SHOW LOW       LGT RAIN  32  30  93 S12G18    29.87S WCI  23
$$

AZZ023-200200-
GREATER PHOENIX AREA

CITY           SKY/WX    TMP DP  RH WIND       PRES   REMARKS
PHOENIX        CLOUDY    56  46  69 E6        29.86F
BUCKEYE        CLOUDY    54  50  87 N8        29.89R
GLENDALE       LGT RAIN  54  48  82 NW7       29.90S
LUKE AFB       LGT RAIN  52  51  99 N9        29.88R
DEER VALLEY    LGT RAIN  50  46  86 N5        29.88F
SCOTTSDALE     CLOUDY    54  44  69 CALM      29.89F
MESA-FALCON    CLOUDY   N/A N/A N/A E6        29.86R
MESA-GATEWAY   MOCLDY    55  46  71 E5        29.89S
CHANDLER       CLOUDY    55  46  71 NE7       29.89R
$$

AZZ027-028-200200-
SOUTHWEST MARICOPA COUNTY AND PINAL COUNTY

CITY           SKY/WX    TMP DP  RH WIND       PRES   REMARKS
CASA GRANDE    CLOUDY    57  44  62 NE7       29.89R
$$

AZZ503-504-507>509-200200-
SOUTHEAST ARIZONA

CITY           SKY/WX    TMP DP  RH WIND       PRES   REMARKS
TUCSON         CLOUDY    56  34  43 N5        29.92R
DAVIS-MONTHAN  CLOUDY    54  35  48 CALM      29.90S
RYAN FIELD     MOCLDY    59  28  31 SW12      29.92R
NOGALES        MOCLDY    51  29  42 SW9       29.94S
SIERRA VISTA   MOCLDY    50  29  43 SW6       29.95R
DOUGLAS        PTCLDY    50  31  48 SW7       29.93S
SAFFORD        MOCLDY    46  42  86 CALM      29.91R
$$

AZZ020-021-025-026-031-200200-
SOUTHWEST ARIZONA

CITY           SKY/WX    TMP DP  RH WIND       PRES   REMARKS
YUMA           MOCLDY    64  40  41 NW9       29.86R
$$

CAZ031-033-041-043-047-048-061-200200-
SOUTHERN CALIFORNIA

CITY           SKY/WX    TMP DP  RH WIND       PRES   REMARKS
DOWNTOWN L.A.  PTCLDY    59  49  69 VRB5      29.89R
L.A. AIRPORT   PTCLDY    58  51  78 W15       29.90R
SAN DIEGO      PTCLDY    59  48  67 W6        29.96S
BURBANK        PTCLDY    57  45  64 SW5       29.87R
ONTARIO        CLOUDY    54  47  77 SW14      29.89R
RIVERSIDE      PTCLDY    55  45  68 SW10      29.89R
PALM SPRINGS   PTCLDY    57  50  77 CALM      29.85S
EL CENTRO NAS  MOCLDY    61  41  47 W17       29.88R
IMPERIAL       PTCLDY    62  44  51 W16       29.85R
BLYTHE         CLEAR     63  41  44 SW10      29.84R
NEEDLES        CLOUDY    56  48  74 SE5       29.81F
$$

NVZ020-UTZ003-200200-
SOUTHERN NEVADA-UTAH

CITY           SKY/WX    TMP DP  RH WIND       PRES   REMARKS
LAS VEGAS      MOCLDY    53  35  50 SW8       29.73R
SALT LAKE CITY FOG       30  28  93 NW6       29.74R VSB 1/2 WCI  24
$$

NMZ009-TXZ055-200200-
NEW MEXICO-WEST TEXAS

CITY           SKY/WX    TMP DP  RH WIND       PRES   REMARKS
ALBUQUERQUE    CLOUDY    45  31  58 NW12      29.80R
EL PASO        MOCLDY    54  26  34 W14G23    29.84S
$$


........................KEY........................
SKY/WX - SKY CONDITION/WEATHER
TMP    - TEMPERATURE IN FAHRENHEIT
DP     - DEW POINT IN FAHRENHEIT
RH     - RELATIVE HUMIDITY IN PERCENT
WIND   - DIRECTION AND SPEED IN MILES PER HOUR (MPH)
VRB    - VARIABLE WIND DIRECTION
PRES   - MEAN SEA LEVEL PRESSURE IN INCHES OF MERCURY
         F - FALLING PRESSURE   R - RISING PRESSURE
         S - STEADY PRESSURE
VSB    - VISIBILITY IN MILES
HX     - HEAT INDEX IN FAHRENHEIT
WCI    - WIND CHILL INDEX IN FAHRENHEIT
TC     - TEMPERATURE IN CELSIUS WHICH IS ALSO KNOWN AS
         TEMPERATURE IN CENTIGRADE
AFB    - AIR FORCE BASE
         LUKE AFB IS LUKE AIR FORCE BASE
         DAVIS-MONTHAN IS DAVIS-MONTHAN AIR FORCE BASE
NAS    - NAVAL AIR STATION
         EL CENTRO NAS IS EL CENTRO NAVAL AIR STATION
N/A    - NOT AVAILABLE





USA.gov is the U.S. government's official web portal to all federal, state and local government web resources and services.